WJA222 CYYC-CYWG

Flight info

Callsign WJA222
Flight time 1h 34m
Altitude 37000
Route LOMLO Q961 DAPOP DCT DURUR DCT SEGAP BEFAN5
Aircraft B38M/M-SDE1FGHILORVWXY/HB1

Departure

Time 2026-05-04 02:47
Airport Calgary International Airport (CYYC)

Arrival

Time 2026-05-04 04:22
Airport Winnipeg / James Armstrong Richardson International Airport (CYWG)
Time Latitude Longitude Altitude Speed Heading
2026-05-04 02:16 51.12827 -114.00764 3562 ft 0 kts 317°
2026-05-04 02:33 51.12810 -114.00739 3555 ft 3 kts 317°
2026-05-04 02:34 51.12796 -114.00711 3559 ft 4 kts 285°
2026-05-04 02:34 51.12799 -114.00675 3559 ft 4 kts 235°
2026-05-04 02:34 51.12818 -114.00648 3554 ft 4 kts 203°
2026-05-04 02:34 51.12838 -114.00641 3558 ft 4 kts 181°
2026-05-04 02:35 51.12859 -114.00640 3559 ft 0 kts 181°
2026-05-04 02:38 51.12853 -114.00640 3559 ft 2 kts 182°
2026-05-04 02:38 51.12835 -114.00640 3562 ft 4 kts 177°
2026-05-04 02:38 51.12810 -114.00639 3562 ft 7 kts 180°
2026-05-04 02:39 51.12750 -114.00640 3562 ft 11 kts 176°
2026-05-04 02:39 51.12676 -114.00636 3560 ft 11 kts 178°
2026-05-04 02:39 51.12616 -114.00700 3562 ft 13 kts 261°
2026-05-04 02:39 51.12612 -114.00854 3562 ft 15 kts 269°
2026-05-04 02:40 51.12611 -114.01023 3562 ft 15 kts 263°
2026-05-04 02:40 51.12600 -114.01198 3562 ft 13 kts 271°
2026-05-04 02:40 51.12600 -114.01259 3562 ft 6 kts 269°
2026-05-04 02:40 51.12599 -114.01345 3556 ft 9 kts 269°
2026-05-04 02:41 51.12601 -114.01472 3562 ft 13 kts 266°
2026-05-04 02:41 51.12601 -114.01644 3559 ft 18 kts 278°
2026-05-04 02:41 51.12564 -114.01829 3559 ft 19 kts 209°
2026-05-04 02:41 51.12479 -114.01907 3557 ft 11 kts 205°
2026-05-04 02:42 51.12422 -114.01956 3562 ft 5 kts 210°
2026-05-04 02:42 51.12374 -114.02000 3560 ft 11 kts 210°
2026-05-04 02:42 51.12288 -114.02075 3556 ft 16 kts 208°
2026-05-04 02:42 51.12173 -114.02135 3558 ft 19 kts 180°
2026-05-04 02:43 51.12022 -114.02129 3557 ft 25 kts 178°
2026-05-04 02:43 51.11824 -114.02134 3561 ft 31 kts 180°
2026-05-04 02:43 51.11585 -114.02130 3559 ft 37 kts 178°
2026-05-04 02:43 51.11356 -114.02097 3560 ft 31 kts 167°
2026-05-04 02:44 51.11210 -114.01984 3560 ft 17 kts 152°
2026-05-04 02:44 51.11143 -114.01823 3562 ft 18 kts 124°
2026-05-04 02:44 51.11044 -114.01800 3560 ft 17 kts 180°
2026-05-04 02:44 51.10905 -114.01797 3558 ft 23 kts 180°
2026-05-04 02:45 51.10727 -114.01797 3556 ft 28 kts 180°
2026-05-04 02:45 51.10578 -114.01870 3558 ft 21 kts 271°
2026-05-04 02:45 51.10675 -114.02026 3561 ft 17 kts 324°
2026-05-04 02:45 51.10744 -114.02090 3558 ft 1 kts 328°
2026-05-04 02:46 51.10765 -114.02105 3558 ft 6 kts 341°
2026-05-04 02:46 51.10819 -114.02129 3559 ft 13 kts 352°
2026-05-04 02:46 51.11189 -114.02132 3563 ft 92 kts 359°
2026-05-04 02:46 51.12074 -114.02143 3561 ft 158 kts
2026-05-04 02:47 51.13300 -114.02255 4037 ft 186 kts 355°
2026-05-04 02:47 51.14591 -114.02457 5255 ft 183 kts 358°
2026-05-04 02:47 51.15922 -114.02537 6088 ft 201 kts 359°
2026-05-04 02:47 51.17354 -114.02451 6738 ft 221 kts 14°
2026-05-04 02:48 51.18705 -114.01075 7387 ft 249 kts 46°
2026-05-04 02:48 51.19520 -113.98483 8108 ft 277 kts 71°
2026-05-04 02:48 51.19463 -113.95341 9087 ft 294 kts 104°
2026-05-04 02:48 51.18691 -113.92238 9931 ft 307 kts 106°
2026-05-04 02:49 51.17981 -113.88948 10557 ft 323 kts 106°
2026-05-04 02:49 51.17245 -113.85454 11181 ft 338 kts 107°
2026-05-04 02:49 51.16476 -113.81843 11906 ft 349 kts 107°
2026-05-04 02:49 51.15680 -113.78157 12783 ft 355 kts 108°
2026-05-04 02:50 51.14871 -113.74447 13549 ft 363 kts 109°
2026-05-04 02:50 51.14037 -113.70623 14314 ft 369 kts 108°
2026-05-04 02:50 51.13189 -113.66748 15056 ft 374 kts 108°
2026-05-04 02:50 51.12321 -113.62800 15804 ft 379 kts 107°
2026-05-04 02:51 51.11450 -113.58844 16516 ft 384 kts 106°
2026-05-04 02:51 51.10557 -113.54802 17253 ft 389 kts 106°
2026-05-04 02:51 51.09650 -113.50699 17952 ft 394 kts 105°
2026-05-04 02:51 51.08732 -113.46563 18601 ft 399 kts 105°
2026-05-04 02:52 51.07812 -113.42432 19214 ft 402 kts 105°
2026-05-04 02:52 51.06992 -113.38193 19791 ft 401 kts 94°
2026-05-04 02:52 51.06702 -113.33798 20376 ft 401 kts 89°
2026-05-04 02:52 51.06428 -113.29345 20899 ft 409 kts 89°
2026-05-04 02:53 51.06153 -113.24813 21465 ft 412 kts 89°
2026-05-04 02:53 51.05855 -113.20283 22055 ft 416 kts 90°
2026-05-04 02:53 51.05531 -113.15679 22624 ft 420 kts 90°
2026-05-04 02:53 51.05207 -113.11047 23194 ft 423 kts 90°
2026-05-04 02:54 51.04879 -113.06368 23711 ft 427 kts 90°
2026-05-04 02:54 51.04547 -113.01648 24170 ft 430 kts 90°
2026-05-04 02:54 51.04212 -112.96916 24638 ft 433 kts 90°
2026-05-04 02:54 51.03876 -112.92193 25097 ft 435 kts 90°
2026-05-04 02:55 51.03185 -112.82569 26010 ft 441 kts 90°
2026-05-04 02:55 51.02834 -112.77720 26485 ft 444 kts 90°
2026-05-04 02:55 51.02478 -112.72817 26848 ft 448 kts 90°
2026-05-04 02:56 51.02115 -112.67876 27293 ft 451 kts 90°
2026-05-04 02:56 51.01750 -112.62921 27713 ft 453 kts 90°
2026-05-04 02:56 51.01382 -112.57929 28126 ft 456 kts 90°
2026-05-04 02:56 51.01008 -112.52921 28537 ft 458 kts 90°
2026-05-04 02:57 51.00629 -112.47878 28933 ft 461 kts 90°
2026-05-04 02:57 51.00254 -112.42910 29319 ft 464 kts 90°
2026-05-04 02:57 50.99867 -112.37810 29703 ft 466 kts 90°
2026-05-04 02:57 50.99475 -112.32673 30057 ft 469 kts 91°
2026-05-04 02:58 50.99080 -112.27524 30384 ft 471 kts 90°
2026-05-04 02:58 50.98680 -112.22346 30764 ft 473 kts 90°
2026-05-04 02:58 50.98275 -112.17135 30981 ft 478 kts 90°
2026-05-04 02:58 50.97865 -112.11890 31325 ft 479 kts 90°
2026-05-04 02:59 50.97452 -112.06630 31658 ft 481 kts 90°
2026-05-04 02:59 50.97036 -112.01379 31983 ft 483 kts 90°
2026-05-04 02:59 50.96615 -111.96079 32316 ft 484 kts 90°
2026-05-04 02:59 50.96190 -111.90778 32625 ft 486 kts 90°
2026-05-04 03:00 50.95761 -111.85441 32939 ft 488 kts 89°
2026-05-04 03:00 50.95334 -111.80161 33252 ft 489 kts 89°
2026-05-04 03:00 50.94897 -111.74800 33548 ft 491 kts 89°
2026-05-04 03:00 50.94456 -111.69409 33899 ft 493 kts 89°
2026-05-04 03:01 50.94014 -111.64038 34121 ft 495 kts 89°
2026-05-04 03:01 50.93564 -111.58604 34342 ft 497 kts 89°
2026-05-04 03:01 50.93113 -111.53174 34680 ft 496 kts 90°
2026-05-04 03:01 50.92698 -111.47758 35015 ft 491 kts 85°
2026-05-04 03:02 50.92591 -111.42384 35375 ft 487 kts 84°
2026-05-04 03:02 50.92461 -111.37026 35681 ft 487 kts 84°
2026-05-04 03:02 50.92306 -111.31648 36006 ft 487 kts 85°
2026-05-04 03:02 50.92138 -111.26298 36326 ft 486 kts 85°
2026-05-04 03:03 50.91967 -111.20976 36637 ft 485 kts 85°
2026-05-04 03:03 50.91793 -111.15628 36950 ft 485 kts 85°
2026-05-04 03:03 50.91616 -111.10282 36967 ft 487 kts 85°
2026-05-04 03:04 50.91255 -110.99611 36936 ft 484 kts 85°
2026-05-04 03:04 50.90887 -110.89000 36917 ft 485 kts 85°
2026-05-04 03:05 50.90507 -110.78361 36922 ft 485 kts 85°
2026-05-04 03:05 50.90116 -110.67658 36906 ft 485 kts 86°
2026-05-04 03:06 50.89718 -110.57036 36909 ft 486 kts 86°
2026-05-04 03:06 50.89307 -110.46346 36916 ft 487 kts 86°
2026-05-04 03:07 50.88887 -110.35663 36911 ft 487 kts 86°
2026-05-04 03:07 50.88456 -110.24961 36909 ft 487 kts 86°
2026-05-04 03:08 50.88015 -110.14243 36913 ft 487 kts 86°
2026-05-04 03:08 50.87572 -110.03623 36902 ft 488 kts 86°
2026-05-04 03:09 50.87346 -109.92938 36916 ft 486 kts 84°
2026-05-04 03:09 50.87140 -109.82255 36901 ft 485 kts 84°
2026-05-04 03:10 50.86919 -109.71559 36899 ft 486 kts 84°
2026-05-04 03:10 50.86688 -109.60881 36951 ft 486 kts 84°
2026-05-04 03:11 50.86448 -109.50207 36892 ft 489 kts 84°
2026-05-04 03:11 50.86196 -109.39441 36901 ft 489 kts 85°
2026-05-04 03:12 50.85934 -109.28673 36891 ft 489 kts 85°
2026-05-04 03:12 50.85663 -109.17939 36892 ft 489 kts 85°
2026-05-04 03:13 50.85382 -109.07225 36917 ft 491 kts 85°
2026-05-04 03:13 50.85088 -108.96388 36881 ft 492 kts 85°
2026-05-04 03:14 50.84785 -108.85574 36889 ft 493 kts 85°
2026-05-04 03:14 50.84473 -108.74794 36877 ft 493 kts 85°
2026-05-04 03:15 50.84148 -108.63926 36873 ft 493 kts 85°
2026-05-04 03:15 50.83814 -108.53101 36881 ft 493 kts 85°
2026-05-04 03:16 50.83470 -108.42269 36868 ft 493 kts 86°
2026-05-04 03:16 50.83116 -108.31431 36836 ft 493 kts 86°
2026-05-04 03:17 50.82754 -108.20665 36860 ft 494 kts 86°
2026-05-04 03:17 50.82378 -108.09776 36914 ft 494 kts 86°
2026-05-04 03:18 50.81991 -107.98893 36848 ft 497 kts 86°
2026-05-04 03:18 50.81596 -107.88029 36845 ft 498 kts 86°
2026-05-04 03:19 50.81186 -107.77066 36845 ft 498 kts 87°
2026-05-04 03:19 50.80769 -107.66163 36835 ft 498 kts 87°
2026-05-04 03:20 50.80338 -107.55203 36867 ft 501 kts 87°
2026-05-04 03:20 50.79896 -107.44190 36838 ft 502 kts 88°
2026-05-04 03:21 50.79445 -107.33233 36836 ft 502 kts 88°
2026-05-04 03:21 50.78982 -107.22237 36834 ft 502 kts 88°
2026-05-04 03:22 50.78508 -107.11205 36838 ft 502 kts 88°
2026-05-04 03:22 50.78022 -107.00163 36829 ft 504 kts 88°
2026-05-04 03:23 50.77526 -106.89126 36831 ft 505 kts 88°
2026-05-04 03:23 50.77021 -106.78132 36823 ft 505 kts 88°
2026-05-04 03:24 50.76503 -106.67068 36824 ft 505 kts 89°
2026-05-04 03:24 50.75975 -106.56010 36851 ft 504 kts 89°
2026-05-04 03:25 50.75438 -106.44999 36815 ft 503 kts 89°
2026-05-04 03:25 50.74983 -106.35840 36820 ft 504 kts 89°
2026-05-04 03:26 50.74425 -106.24780 36810 ft 504 kts 89°
2026-05-04 03:26 50.73860 -106.13802 36810 ft 504 kts 89°
2026-05-04 03:27 50.73283 -106.02801 36811 ft 503 kts 89°
2026-05-04 03:27 50.72697 -105.91822 36802 ft 503 kts 90°
2026-05-04 03:28 50.72100 -105.80815 36788 ft 504 kts 90°
2026-05-04 03:28 50.71491 -105.69809 36797 ft 505 kts 90°
2026-05-04 03:29 50.70874 -105.58824 36839 ft 505 kts 90°
2026-05-04 03:29 50.70245 -105.47839 36777 ft 501 kts 90°
2026-05-04 03:30 50.69610 -105.36890 36785 ft 502 kts 90°
2026-05-04 03:30 50.68967 -105.25955 36773 ft 501 kts 90°
2026-05-04 03:31 50.68314 -105.15000 36777 ft 501 kts 91°
2026-05-04 03:31 50.67652 -105.04072 36785 ft 500 kts 91°
2026-05-04 03:32 50.66986 -104.93228 36764 ft 499 kts 91°
2026-05-04 03:32 50.65839 -104.82414 36773 ft 503 kts 97°
2026-05-04 03:33 50.64431 -104.71584 36756 ft 503 kts 98°
2026-05-04 03:33 50.63004 -104.60765 36737 ft 506 kts 98°
2026-05-04 03:34 50.61566 -104.49940 36741 ft 506 kts 98°
2026-05-04 03:34 50.60116 -104.39106 36736 ft 505 kts 98°
2026-05-04 03:35 50.58663 -104.28334 36729 ft 506 kts 98°
2026-05-04 03:35 50.57189 -104.17485 36720 ft 506 kts 99°
2026-05-04 03:36 50.55711 -104.06689 36724 ft 505 kts 99°
2026-05-04 03:36 50.54232 -103.95968 36707 ft 505 kts 99°
2026-05-04 03:37 50.52729 -103.85151 36711 ft 505 kts 99°
2026-05-04 03:37 50.51223 -103.74389 36671 ft 506 kts 99°
2026-05-04 03:38 50.49700 -103.63581 36696 ft 507 kts 99°
2026-05-04 03:38 50.48165 -103.52767 36684 ft 507 kts 99°
2026-05-04 03:39 50.46621 -103.41968 36677 ft 507 kts 99°
2026-05-04 03:39 50.45069 -103.31188 36680 ft 507 kts 99°
2026-05-04 03:40 50.43514 -103.20469 36675 ft 507 kts 100°
2026-05-04 03:40 50.41940 -103.09686 36675 ft 507 kts 100°
2026-05-04 03:41 50.40360 -102.98948 36682 ft 506 kts 100°
2026-05-04 03:41 50.38776 -102.88246 36663 ft 504 kts 100°
2026-05-04 03:42 50.37178 -102.77531 36657 ft 504 kts 100°
2026-05-04 03:42 50.35573 -102.66838 36653 ft 504 kts 101°
2026-05-04 03:43 50.33970 -102.56229 36650 ft 504 kts 101°
2026-05-04 03:43 50.32350 -102.45580 36656 ft 500 kts 101°
2026-05-04 03:44 50.30730 -102.35005 36641 ft 500 kts 101°
2026-05-04 03:44 50.30254 -102.31910 36641 ft 0 kts 101°
2026-05-04 03:44 50.31035 -102.38182 36641 ft 0 kts 101°
2026-05-04 03:46 50.30811 -102.36427 36565 ft 500 kts 99°
2026-05-04 03:47 50.30073 -102.31123 36542 ft 497 kts 100°
2026-05-04 03:47 50.29298 -102.25845 36662 ft 499 kts 101°
2026-05-04 03:47 50.28501 -102.20585 36637 ft 501 kts 101°
2026-05-04 03:48 50.26858 -102.10003 36634 ft 499 kts 101°
2026-05-04 03:48 50.25206 -101.99450 36613 ft 499 kts 102°
2026-05-04 03:49 50.23544 -101.88901 36627 ft 500 kts 102°
2026-05-04 03:49 50.21886 -101.78444 36616 ft 499 kts 102°
2026-05-04 03:50 50.20205 -101.67912 36618 ft 499 kts 102°
2026-05-04 03:50 50.18515 -101.57391 36605 ft 499 kts 102°
2026-05-04 03:51 50.16830 -101.46963 36619 ft 499 kts 102°
2026-05-04 03:51 50.15127 -101.36493 36596 ft 498 kts 102°
2026-05-04 03:52 50.13414 -101.26029 36596 ft 498 kts 102°
2026-05-04 03:52 50.11690 -101.15559 36589 ft 498 kts 103°
2026-05-04 03:53 50.09961 -101.05124 36591 ft 500 kts 103°
2026-05-04 03:53 50.08207 -100.94597 36579 ft 500 kts 103°
2026-05-04 03:54 50.06449 -100.84116 36579 ft 500 kts 103°
2026-05-04 03:54 50.04690 -100.73693 36570 ft 500 kts 103°
2026-05-04 03:55 50.02914 -100.63235 36557 ft 500 kts 103°
2026-05-04 03:55 50.01127 -100.52772 36589 ft 500 kts 104°
2026-05-04 03:56 49.99331 -100.42320 36552 ft 501 kts 104°
2026-05-04 03:56 49.97529 -100.31877 36321 ft 498 kts 104°
2026-05-04 03:56 49.96640 -100.26748 35554 ft 501 kts 104°
2026-05-04 03:57 49.95725 -100.21480 34557 ft 510 kts 104°
2026-05-04 03:57 49.94799 -100.16167 33755 ft 511 kts 105°
2026-05-04 03:57 49.93875 -100.10876 33188 ft 500 kts 105°
2026-05-04 03:57 49.92975 -100.05742 32807 ft 486 kts 105°
2026-05-04 03:58 49.91249 -99.95895 31911 ft 464 kts 104°
2026-05-04 03:58 49.90787 -99.90975 31275 ft 457 kts 90°
2026-05-04 03:58 49.90615 -99.86147 30749 ft 451 kts 92°
2026-05-04 03:59 49.90386 -99.81332 30370 ft 448 kts 93°
2026-05-04 03:59 49.90157 -99.76459 29936 ft 457 kts 93°
2026-05-04 03:59 49.89925 -99.71526 29394 ft 459 kts 93°
2026-05-04 03:59 49.89691 -99.66591 28850 ft 459 kts 93°
2026-05-04 04:00 49.89456 -99.61661 28370 ft 457 kts 93°
2026-05-04 04:00 49.89218 -99.56754 27885 ft 457 kts 93°
2026-05-04 04:00 49.88977 -99.51797 27025 ft 467 kts 94°
2026-05-04 04:00 49.88728 -99.46724 26092 ft 478 kts 94°
2026-05-04 04:01 49.88471 -99.41543 25373 ft 483 kts 94°
2026-05-04 04:01 49.88215 -99.36425 25041 ft 469 kts 94°
2026-05-04 04:01 49.87968 -99.31517 24767 ft 455 kts 95°
2026-05-04 04:01 49.87722 -99.26677 24347 ft 447 kts 95°
2026-05-04 04:02 49.87477 -99.21907 23925 ft 440 kts 95°
2026-05-04 04:02 49.87235 -99.17226 23538 ft 433 kts 95°
2026-05-04 04:02 49.86994 -99.12604 23152 ft 426 kts 95°
2026-05-04 04:02 49.86755 -99.08061 22683 ft 420 kts 95°
2026-05-04 04:03 49.86518 -99.03576 22272 ft 412 kts 96°
2026-05-04 04:03 49.86287 -98.99242 21891 ft 404 kts 96°
2026-05-04 04:03 49.86057 -98.94947 21514 ft 398 kts 96°
2026-05-04 04:03 49.85824 -98.90651 21141 ft 403 kts 96°
2026-05-04 04:04 49.85588 -98.86300 20744 ft 406 kts 96°
2026-05-04 04:04 49.85350 -98.81947 20300 ft 404 kts 96°
2026-05-04 04:04 49.85112 -98.77650 19936 ft 401 kts 96°
2026-05-04 04:04 49.84874 -98.73359 19555 ft 398 kts 96°
2026-05-04 04:05 49.84636 -98.69096 19150 ft 395 kts 96°
2026-05-04 04:05 49.84397 -98.64858 18764 ft 392 kts 96°
2026-05-04 04:05 49.84159 -98.60660 18372 ft 390 kts 97°
2026-05-04 04:05 49.83921 -98.56487 17989 ft 387 kts 97°
2026-05-04 04:06 49.83684 -98.52346 17581 ft 384 kts 97°
2026-05-04 04:06 49.83447 -98.48241 17165 ft 381 kts 96°
2026-05-04 04:06 49.83211 -98.44171 17036 ft 379 kts 97°
2026-05-04 04:06 49.82974 -98.40115 16856 ft 380 kts 96°
2026-05-04 04:07 49.82735 -98.36053 16522 ft 378 kts 96°
2026-05-04 04:07 49.82497 -98.32024 16138 ft 375 kts 96°
2026-05-04 04:07 49.82258 -98.28014 15759 ft 373 kts 96°
2026-05-04 04:07 49.82020 -98.24027 15374 ft 370 kts 95°
2026-05-04 04:08 49.81781 -98.20065 14992 ft 368 kts 95°
2026-05-04 04:08 49.81544 -98.16140 14642 ft 365 kts 95°
2026-05-04 04:08 49.81310 -98.12285 14261 ft 364 kts 94°
2026-05-04 04:08 49.81074 -98.08409 13877 ft 361 kts 94°
2026-05-04 04:09 49.80838 -98.04547 13490 ft 359 kts 94°
2026-05-04 04:09 49.80601 -98.00707 13107 ft 357 kts 93°
2026-05-04 04:09 49.80393 -97.96891 12660 ft 354 kts 92°
2026-05-04 04:09 49.80210 -97.93106 12242 ft 350 kts 91°
2026-05-04 04:10 49.80025 -97.89364 11877 ft 346 kts 91°
2026-05-04 04:10 49.79841 -97.85680 11497 ft 342 kts 91°
2026-05-04 04:10 49.79657 -97.82023 11100 ft 338 kts 91°
2026-05-04 04:10 49.79480 -97.78473 10699 ft 333 kts 91°
2026-05-04 04:11 49.79300 -97.74878 10286 ft 327 kts 91°
2026-05-04 04:11 49.79127 -97.71456 9917 ft 319 kts 90°
2026-05-04 04:11 49.78957 -97.68083 9581 ft 310 kts 90°
2026-05-04 04:11 49.78792 -97.64824 9222 ft 302 kts 90°
2026-05-04 04:12 49.78628 -97.61613 8827 ft 298 kts 90°
2026-05-04 04:12 49.78464 -97.58427 8470 ft 298 kts 90°
2026-05-04 04:12 49.78284 -97.55226 8121 ft 297 kts 91°
2026-05-04 04:12 49.78071 -97.52049 7739 ft 296 kts 91°
2026-05-04 04:13 49.77861 -97.48890 7421 ft 294 kts 91°
2026-05-04 04:13 49.77723 -97.46804 7209 ft 294 kts 91°
2026-05-04 04:13 49.77514 -97.43652 6881 ft 294 kts 91°
2026-05-04 04:13 49.77306 -97.40518 6552 ft 291 kts 91°
2026-05-04 04:14 49.77101 -97.37438 6201 ft 284 kts 91°
2026-05-04 04:14 49.76901 -97.34446 5875 ft 277 kts 91°
2026-05-04 04:14 49.76706 -97.31533 5549 ft 269 kts 91°
2026-05-04 04:14 49.76246 -97.28765 5312 ft 262 kts 113°
2026-05-04 04:15 49.75445 -97.26341 5184 ft 244 kts 114°
2026-05-04 04:15 49.74713 -97.24105 5059 ft 224 kts 114°
2026-05-04 04:15 49.74035 -97.22022 4882 ft 211 kts 114°
2026-05-04 04:15 49.73379 -97.20007 4720 ft 210 kts 114°
2026-05-04 04:16 49.72801 -97.17952 4587 ft 206 kts 95°
2026-05-04 04:16 49.72924 -97.15893 4418 ft 186 kts 55°
2026-05-04 04:16 49.73607 -97.14260 4321 ft 182 kts 42°
2026-05-04 04:16 49.74385 -97.12714 3977 ft 181 kts 41°
2026-05-04 04:17 49.75184 -97.11190 3797 ft 186 kts 41°
2026-05-04 04:17 49.76029 -97.09629 3657 ft 192 kts 40°
2026-05-04 04:17 49.76716 -97.08692 3542 ft 183 kts 18°
2026-05-04 04:17 49.77880 -97.08351 3454 ft 165 kts 342°
2026-05-04 04:18 49.78891 -97.08911 3358 ft 163 kts 329°
2026-05-04 04:18 49.79840 -97.09791 3216 ft 155 kts 321°
2026-05-04 04:18 49.80682 -97.10781 3079 ft 151 kts 316°
2026-05-04 04:18 49.81457 -97.11792 2925 ft 149 kts 314°
2026-05-04 04:19 49.82238 -97.12848 2754 ft 149 kts 314°
2026-05-04 04:19 49.83018 -97.13913 2580 ft 150 kts 314°
2026-05-04 04:19 49.83792 -97.14967 2387 ft 145 kts 313°
2026-05-04 04:19 49.84537 -97.15978 2181 ft 141 kts 311°
2026-05-04 04:20 49.85261 -97.16968 2023 ft 140 kts 311°
2026-05-04 04:20 49.85992 -97.17972 1813 ft 141 kts 311°
2026-05-04 04:20 49.86741 -97.19000 1566 ft 144 kts 313°
2026-05-04 04:20 49.87486 -97.20023 1381 ft 144 kts 314°
2026-05-04 04:21 49.88238 -97.21062 1161 ft 146 kts 316°
2026-05-04 04:21 49.88995 -97.22091 985 ft 145 kts 314°
2026-05-04 04:21 49.89745 -97.23100 801 ft 138 kts 314°
2026-05-04 04:21 49.90369 -97.23980 788 ft 100 kts 323°
2026-05-04 04:22 49.90675 -97.24385 791 ft 3 kts 315°
2026-05-04 04:22 49.90675 -97.24386 791 ft 0 kts 315°
2026-05-04 04:22 49.90689 -97.24394 791 ft 8 kts 352°
2026-05-04 04:22 49.90749 -97.24274 790 ft 24 kts 92°
2026-05-04 04:23 49.90783 -97.23960 791 ft 30 kts 78°
2026-05-04 04:23 49.90810 -97.23745 789 ft 22 kts 81°
2026-05-04 04:23 49.90839 -97.23475 789 ft 30 kts 80°
2026-05-04 04:23 49.90831 -97.23327 789 ft 10 kts 153°
2026-05-04 04:24 49.90726 -97.23253 789 ft 16 kts 155°
2026-05-04 04:24 49.90693 -97.23099 789 ft 22 kts 72°
2026-05-04 04:24 49.90718 -97.22905 789 ft 12 kts 74°
2026-05-04 04:24 49.90730 -97.22830 789 ft 0 kts 75°
2026-05-04 04:25 49.90737 -97.22787 789 ft 1 kts 79°
2026-05-04 04:25 49.90745 -97.22708 789 ft 6 kts 80°
2026-05-04 04:25 49.90751 -97.22660 789 ft 3 kts 78°
2026-05-04 04:25 49.90757 -97.22586 789 ft 10 kts 77°
2026-05-04 04:26 49.90763 -97.22544 789 ft 7 kts 79°
2026-05-04 04:26 49.90765 -97.22529 789 ft 0 kts 79°
2026-05-04 04:26 49.90766 -97.22499 789 ft 10 kts 86°
2026-05-04 04:26 49.90766 -97.22340 789 ft 5 kts 101°
2026-05-04 04:27 49.90760 -97.22332 789 ft 3 kts 149°
2026-05-04 04:27 49.90757 -97.22331 789 ft 0 kts 166°
2026-05-04 04:27 49.90727 -97.22334 789 ft 12 kts 177°
2026-05-04 04:28 49.90701 -97.22339 789 ft 3 kts 189°
2026-05-04 04:28 49.90691 -97.22340 789 ft 1 kts 183°
2026-05-04 04:28 49.90687 -97.22341 789 ft 0 kts 183°
2026-05-04 04:28 49.90683 -97.22341 789 ft 0 kts 184°
2026-05-04 04:32 49.88456 -97.21357 1114 ft 142 kts 315°
2026-05-04 04:33 49.88553 -97.21491 1094 ft 146 kts 314°
2026-05-04 04:33 49.89713 -97.23056 805 ft 139 kts 314°
2026-05-04 04:33 49.89239 -97.22421 895 ft 139 kts 315°
2026-05-04 04:33 49.90660 -97.24363 791 ft 27 kts 315°
2026-05-04 04:34 49.89711 -97.23053 805 ft 135 kts 314°
2026-05-04 04:34 49.89900 -97.23314 790 ft 114 kts 313°
2026-05-04 04:34 49.89163 -97.22318 920 ft 138 kts 315°
2026-05-04 04:35 49.89835 -97.23223 792 ft 135 kts 313°
2026-05-04 04:35 49.89375 -97.22602 857 ft 140 kts 315°
2026-05-04 04:35 49.89267 -97.22459 887 ft 143 kts 314°
2026-05-04 04:36 49.89521 -97.22796 833 ft 142 kts 315°
2026-05-04 04:36 49.90019 -97.23481 791 ft 125 kts 313°